Flag for Canada Weather past 2 weeks in Sanikiluaq, Nunavut, Canada

Now
61 °F

Overcast.


Feels Like: 61 °F
Forecast: 38 / 47 °F
Wind: 7 mph from South

Location: Kuujjuarapik

Current Time: Jul 28, 2015 at 11:55:50 AM

Latest Report: Jul 28, 2015 at 11:00 AM


Visibility: 9 mi

Pressure: 29.92 "Hg

Humidity: 77%

Dew point: 54 °F

Location of SanikiluaqLocation

Historic Weather in Sanikiluaq — Graph

°F

Sanikiluaq temperature yesterday

Maximum temperature yesterday: 45 °F (at 1:00 PM)
Minimum temperature yesterday: 37 °F (at 4:00 AM)
Average temperature yesterday: 42 °F

Past Weeks' High & Low Weather Summary

 TemperatureHumidityPressure
High73 °F (Jul 19, 2:00 PM)100% (Jul 13, 8:00 PM)29.96 "Hg (Jul 13, 8:00 PM)
Low34 °F (Jul 15, 5:00 AM)52% (Jul 16, 6:00 PM)29.27 "Hg (Jul 21, 4:00 AM)
Average51 °F90%29.67 "Hg
* Reported Jul 13 10:00 AM — Jul 28 10:00 AM, Sanikiluaq, Weather by CustomWeather, © 2015

Note: Actual official high and low records may vary slightly from our data, if they occured in-between our weather recording intervals... More about our weather records

Advertising

Sanikiluaq weather history for previous 24 hours

 ConditionsComfort  
Time TempWeatherWind HumidityBarometerVisibility
10:00 AM
Tue, Jul 28
57 °FOvercast.7 mph88%29.94 "Hg9 mi
9:00 AM55 °FOvercast.7 mph94%29.95 "Hg9 mi
8:00 AM54 °FOvercast.6 mph94%29.95 "Hg9 mi
7:00 AM54 °FOvercast.7 mph88%29.94 "Hg9 mi
6:00 AM52 °FOvercast.6 mph94%29.93 "Hg9 mi
5:00 AM50 °FOvercast.3 mph94%29.93 "Hg9 mi
4:00 AM50 °FOvercast.5 mph94%29.92 "Hg9 mi
3:00 AM50 °FOvercast.5 mph94%29.93 "Hg9 mi
2:00 AM48 °FOvercast.6 mph94%29.93 "Hg9 mi
1:00 AM48 °FOvercast.6 mph94%29.93 "Hg9 mi
12:00 AM46 °FLow clouds.No wind100%29.93 "Hg9 mi
11:00 PM
Mon, Jul 27
45 °FLow clouds.3 mph100%29.92 "Hg9 mi
10:00 PM45 °FLow clouds.No wind100%29.92 "Hg9 mi
9:04 PM45 °FFog.2 mph93%29.92 "Hg6 mi
8:00 PM43 °FFog.6 mph100%29.91 "Hg1 mi
7:00 PM43 °FLow clouds.8 mph100%29.89 "Hg9 mi
6:01 PM43 °FFog.8 mph93%29.89 "Hg5 mi
5:04 PM43 °FFog.9 mph93%29.89 "Hg2 mi
5:03 PM43 °FLight rain. Fog.9 mph93%29.89 "Hg2 mi
4:00 PM43 °FMostly cloudy.9 mph93%29.88 "Hg9 mi
3:52 PM43 °FMostly cloudy.10 mph93%29.88 "Hg9 mi
3:00 PM45 °FLow clouds.12 mph87%29.88 "Hg9 mi
2:00 PM45 °FLow clouds.10 mph93%29.85 "Hg9 mi
1:47 PM45 °FLow clouds.12 mph93%29.86 "Hg7 mi
1:00 PM45 °FLow clouds.12 mph87%29.85 "Hg9 mi
12:02 PM43 °FFog.12 mph93%29.84 "Hg2 mi
11:00 AM43 °FMostly cloudy.7 mph93%29.82 "Hg9 mi
Weather by CustomWeather, © 2015

See weather overviewHow to use our weather pages